Starlink 35972

operational
NORAD ID: 66638 Int'l Des: 2025-271 Owner: SPXS Country: US Constellation: starlink
LEOCIRCULAR

Über Starlink 35972

Beschreibung wird geladen...

Live-Position

3D-Globus wird geladen...

Nächste Überflüge

Höhenverlauf

Altitude vs Time

uPlot chart will show altitude changes over time

Zweizeiliger Elementsatz

1 66638U 25271X 26063.46839205 .00034385 00000-0 11677-2 0 9997
2 66638 53.1618 164.4385 0000568 87.4681 272.6385 15.30201124 16761
Epoch: 4. März 2026 • Age: 22 hours

Aktueller Status

Höhe 476.5 km
Geschwindigkeit 7.63 km/s
Subsatellitenpunkt -3.27°S, 24.25°E
Startdatum 23. Nov. 2025
Alter 0.2 years
Typ internet

Technische Details

Klassifizierung Payload
Masse 575.00 kg
Trockenmasse 530.00 kg
Gesamtmasse 575.00 kg
Länge 0.30 m
Durchmesser 4.10 m
Spannweite 29.00 m
Form Box + pan
Hersteller SPXS
Bus-Typ Starlink V2MO
Phasenstatus In Orbit
Besitzer/Staat SPXS/US

Große Konstellationen

Loading constellations...